| time (UTC) | temp F | wind direction | speed MPH | gust MPH | rain 1hr in | rain 24hr in | rain mn in | humidity % | barometer mb |
| 20260506004331 | 50 | 51 | 4.0 | 8.0 | 0.00 | 0.00 | 0.00 | 80 | 1011.8 |
| 20260506003827 | 50 | 109 | 2.0 | 3.0 | 0.00 | 0.00 | 0.00 | 80 | 1011.6 |
| 20260506003324 | 51 | 67 | 4.0 | 9.0 | 0.00 | 0.00 | 0.00 | 80 | 1011.4 |
| 20260506002820 | 51 | 28 | 2.0 | 9.0 | 0.00 | 0.00 | 0.00 | 79 | 1011.6 |
| 20260506002317 | 51 | 330 | 2.0 | 13.0 | 0.00 | 0.00 | 0.00 | 79 | 1011.4 |
| 20260506001812 | 51 | 94 | 3.0 | 10.0 | 0.00 | 0.00 | 0.00 | 79 | 1011.4 |
| 20260506001310 | 51 | 133 | 3.0 | 11.0 | 0.00 | 0.00 | 0.00 | 78 | 1011.1 |
| 20260506000806 | 51 | 94 | 4.0 | 7.0 | 0.00 | 0.00 | 0.00 | 78 | 1011.6 |
| 20260506000304 | 51 | 95 | 0.0 | 3.0 | 0.00 | 0.00 | 0.00 | 78 | 1011.1 |
| 20260505235801 | 51 | 46 | 3.0 | 8.0 | 0.00 | 0.00 | 0.00 | 78 | 1011.3 |
| 20260505235258 | 51 | 13 | 1.0 | 7.0 | 0.00 | 0.00 | 0.00 | 77 | 1011.1 |
| 20260505234755 | 52 | 54 | 5.0 | 8.0 | 0.00 | 0.00 | 0.00 | 76 | 1011.1 |
| 20260505234253 | 52 | 112 | 2.0 | 7.0 | 0.00 | 0.00 | 0.00 | 76 | 1011.0 |
| 20260505233749 | 52 | 54 | 1.0 | 3.0 | 0.00 | 0.00 | 0.00 | 75 | 1011.4 |
| 20260505233247 | 52 | 26 | 1.0 | 11.0 | 0.00 | 0.00 | 0.00 | 75 | 1011.7 |
| 20260505232744 | 52 | 37 | 2.0 | 8.0 | 0.00 | 0.00 | 0.00 | 75 | 1011.9 |
| 20260505232241 | 52 | 98 | 1.0 | 6.0 | 0.00 | 0.00 | 0.00 | 74 | 1011.7 |
| 20260505231738 | 52 | 56 | 1.0 | 7.0 | 0.00 | 0.00 | 0.00 | 74 | 1011.7 |
| 20260505231237 | 52 | 53 | 2.0 | 4.0 | 0.00 | 0.00 | 0.00 | 74 | 1011.6 |
| 20260505230735 | 52 | 104 | 1.0 | 6.0 | 0.00 | 0.00 | 0.00 | 74 | 1011.2 |
| 20260505230231 | 52 | 53 | 4.0 | 9.0 | 0.00 | 0.00 | 0.00 | 74 | 1011.0 |
| 20260505225728 | 53 | 72 | 3.0 | 7.0 | 0.00 | 0.00 | 0.00 | 73 | 1010.9 |
| 20260505225225 | 53 | 135 | 0.0 | 2.0 | 0.00 | 0.00 | 0.00 | 73 | 1010.9 |
| 20260505224720 | 53 | 68 | 3.0 | 6.0 | 0.00 | 0.00 | 0.00 | 73 | 1011.0 |
| 20260505224218 | 53 | 359 | 2.0 | 3.0 | 0.00 | 0.00 | 0.00 | 74 | 1010.9 |
| 20260505223716 | 53 | 51 | 4.0 | 9.0 | 0.00 | 0.00 | 0.00 | 73 | 1010.8 |
| 20260505223211 | 53 | 54 | 3.0 | 9.0 | 0.00 | 0.00 | 0.00 | 74 | 1011.1 |
| 20260505222708 | 53 | 50 | 2.0 | 4.0 | 0.00 | 0.00 | 0.00 | 74 | 1010.9 |
| 20260505222203 | 53 | 10 | 3.0 | 8.0 | 0.00 | 0.00 | 0.00 | 74 | 1010.8 |
| 20260505221701 | 53 | 101 | 2.0 | 7.0 | 0.00 | 0.00 | 0.00 | 74 | 1010.5 |
| 20260505221158 | 53 | 69 | 2.0 | 6.0 | 0.00 | 0.00 | 0.00 | 74 | 1010.5 |
| 20260505220655 | 53 | 57 | 1.0 | 8.0 | 0.00 | 0.00 | 0.00 | 74 | 1010.4 |
| 20260505220153 | 53 | 62 | 5.0 | 8.0 | 0.00 | 0.00 | 0.00 | 74 | 1010.7 |
| 20260505215650 | 54 | 75 | 3.0 | 6.0 | 0.00 | 0.00 | 0.00 | 73 | 1010.5 |
| 20260505215148 | 54 | 74 | 3.0 | 6.0 | 0.00 | 0.00 | 0.00 | 73 | 1010.5 |
| 20260505214646 | 54 | 61 | 4.0 | 7.0 | 0.00 | 0.00 | 0.00 | 72 | 1009.9 |
| 20260505214142 | 54 | 92 | 4.0 | 8.0 | 0.00 | 0.00 | 0.00 | 72 | 1009.8 |
| 20260505213640 | 54 | 45 | 2.0 | 6.0 | 0.00 | 0.00 | 0.00 | 72 | 1009.8 |
| 20260505213137 | 54 | 334 | 9.0 | 13.0 | 0.00 | 0.00 | 0.00 | 72 | 1009.8 |
| 20260505212632 | 54 | 66 | 3.0 | 17.0 | 0.00 | 0.00 | 0.00 | 72 | 1009.9 |
| 20260505212130 | 54 | 324 | 4.0 | 7.0 | 0.00 | 0.00 | 0.00 | 72 | 1010.0 |
| 20260505211627 | 54 | 50 | 3.0 | 8.0 | 0.00 | 0.00 | 0.00 | 72 | 1010.1 |
| 20260505211124 | 54 | 48 | 3.0 | 9.0 | 0.00 | 0.00 | 0.00 | 72 | 1009.4 |
| 20260505210621 | 55 | 47 | 2.0 | 8.0 | 0.00 | 0.00 | 0.00 | 72 | 1009.6 |
| 20260505210118 | 55 | 317 | 2.0 | 8.0 | 0.00 | 0.00 | 0.00 | 72 | 1009.3 |
| 20260505205615 | 54 | 121 | 4.0 | 11.0 | 0.00 | 0.00 | 0.00 | 73 | 1009.3 |
| 20260505205113 | 54 | 3 | 5.0 | 10.0 | 0.00 | 0.00 | 0.00 | 74 | 1010.0 |
| 20260505204610 | 54 | 19 | 3.0 | 6.0 | 0.00 | 0.00 | 0.00 | 74 | 1010.4 |
| 20260505204107 | 54 | 88 | 3.0 | 7.0 | 0.00 | 0.00 | 0.00 | 74 | 1010.8 |
| 20260505203604 | 55 | 86 | 1.0 | 9.0 | 0.00 | 0.00 | 0.00 | 74 | 1010.5 |
| 20260505203101 | 55 | 50 | 3.0 | 8.0 | 0.00 | 0.00 | 0.00 | 73 | 1010.0 |
| 20260505202556 | 55 | 13 | 4.0 | 8.0 | 0.00 | 0.00 | 0.00 | 73 | 1009.7 |
| 20260505202053 | 55 | 353 | 2.0 | 10.0 | 0.00 | 0.00 | 0.00 | 74 | 1010.0 |
| 20260505201550 | 55 | 354 | 2.0 | 4.0 | 0.00 | 0.00 | 0.00 | 73 | 1009.7 |
| 20260505201048 | 55 | 66 | 4.0 | 13.0 | 0.00 | 0.00 | 0.00 | 74 | 1009.5 |
| 20260505200545 | 55 | 20 | 2.0 | 11.0 | 0.00 | 0.00 | 0.00 | 74 | 1009.4 |
| 20260505200042 | 55 | 348 | 3.0 | 9.0 | 0.00 | 0.00 | 0.00 | 75 | 1009.8 |
| 20260505195538 | 55 | 68 | 2.0 | 9.0 | 0.00 | 0.00 | 0.00 | 76 | 1009.7 |
| 20260505195036 | 55 | 347 | 2.0 | 9.0 | 0.00 | 0.00 | 0.00 | 76 | 1009.5 |
| 20260505194533 | 55 | 24 | 2.0 | 7.0 | 0.00 | 0.00 | 0.00 | 77 | 1009.6 |
| 20260505194028 | 55 | 70 | 2.0 | 3.0 | 0.00 | 0.00 | 0.00 | 77 | 1009.6 |
| 20260505193525 | 54 | 347 | 3.0 | 13.0 | 0.00 | 0.00 | 0.00 | 78 | 1009.6 |
| 20260505193023 | 55 | 170 | 2.0 | 8.0 | 0.00 | 0.00 | 0.00 | 78 | 1009.6 |
| 20260505192521 | 54 | 80 | 4.0 | 13.0 | 0.00 | 0.00 | 0.00 | 79 | 1009.6 |
| 20260505192018 | 55 | 321 | 2.0 | 6.0 | 0.00 | 0.00 | 0.00 | 78 | 1009.5 |
| 20260505191516 | 55 | 343 | 4.0 | 9.0 | 0.00 | 0.00 | 0.00 | 79 | 1009.4 |
| 20260505191014 | 54 | 36 | 4.0 | 8.0 | 0.00 | 0.00 | 0.00 | 79 | 1009.3 |
| 20260505190508 | 55 | 52 | 4.0 | 6.0 | 0.00 | 0.00 | 0.00 | 80 | 1009.3 |
| 20260505190005 | 55 | 17 | 4.0 | 7.0 | 0.00 | 0.00 | 0.00 | 80 | 1009.5 |
| 20260505185502 | 56 | 26 | 4.0 | 7.0 | 0.00 | 0.00 | 0.00 | 79 | 1009.5 |
| 20260505184958 | 55 | 63 | 2.0 | 7.0 | 0.00 | 0.00 | 0.00 | 80 | 1009.3 |
| 20260505184455 | 55 | 129 | 3.0 | 6.0 | 0.00 | 0.00 | 0.00 | 80 | 1009.3 |
| 20260505183951 | 56 | 337 | 2.0 | 6.0 | 0.00 | 0.00 | 0.00 | 79 | 1009.2 |
| 20260505183449 | 56 | 100 | 4.0 | 13.0 | 0.00 | 0.00 | 0.00 | 79 | 1009.2 |
| 20260505182945 | 56 | 31 | 7.0 | 11.0 | 0.00 | 0.00 | 0.00 | 79 | 1009.3 |
| 20260505182442 | 56 | 138 | 3.0 | 8.0 | 0.00 | 0.00 | 0.00 | 78 | 1009.1 |
| 20260505181938 | 57 | 295 | 2.0 | 7.0 | 0.00 | 0.00 | 0.00 | 78 | 1009.1 |
| 20260505181436 | 57 | 296 | 3.0 | 8.0 | 0.00 | 0.00 | 0.00 | 78 | 1008.9 |
| 20260505180933 | 57 | 137 | 2.0 | 4.0 | 0.00 | 0.00 | 0.00 | 78 | 1008.6 |
| 20260505180429 | 57 | 352 | 5.0 | 8.0 | 0.00 | 0.00 | 0.00 | 78 | 1008.7 |
| 20260505175926 | 57 | 345 | 2.0 | 9.0 | 0.00 | 0.00 | 0.00 | 78 | 1008.9 |
| 20260505175422 | 57 | 66 | 2.0 | 6.0 | 0.00 | 0.00 | 0.00 | 78 | 1008.6 |
| 20260505174918 | 57 | 28 | 4.0 | 8.0 | 0.00 | 0.00 | 0.00 | 78 | 1008.1 |
| 20260505174416 | 57 | 88 | 3.0 | 10.0 | 0.00 | 0.00 | 0.00 | 79 | 1008.1 |
| 20260505173912 | 57 | 40 | 2.0 | 7.0 | 0.00 | 0.00 | 0.00 | 79 | 1008.2 |
| 20260505173408 | 57 | 352 | 2.0 | 11.0 | 0.00 | 0.00 | 0.00 | 80 | 1008.2 |
| 20260505172905 | 57 | 357 | 4.0 | 9.0 | 0.00 | 0.00 | 0.00 | 79 | 1008.0 |
| 20260505172403 | 57 | 82 | 2.0 | 10.0 | 0.00 | 0.00 | 0.00 | 80 | 1008.0 |
| 20260505171903 | 57 | 33 | 3.0 | 7.0 | 0.00 | 0.00 | 0.00 | 80 | 1008.1 |
| 20260505171400 | 57 | 311 | 3.0 | 9.0 | 0.00 | 0.00 | 0.00 | 80 | 1007.9 |
| 20260505170856 | 57 | 349 | 3.0 | 7.0 | 0.00 | 0.00 | 0.00 | 81 | 1007.5 |
| 20260505170354 | 57 | 26 | 4.0 | 8.0 | 0.00 | 0.00 | 0.00 | 81 | 1007.8 |
| 20260505165848 | 57 | 76 | 3.0 | 7.0 | 0.00 | 0.00 | 0.00 | 81 | 1007.8 |
| 20260505165344 | 57 | 93 | 2.0 | 7.0 | 0.00 | 0.00 | 0.00 | 81 | 1007.5 |
| 20260505164840 | 57 | 159 | 1.0 | 4.0 | 0.00 | 0.00 | 0.00 | 82 | 1007.5 |
| 20260505164337 | 57 | 33 | 1.0 | 10.0 | 0.00 | 0.00 | 0.00 | 82 | 1007.6 |
| 20260505163835 | 57 | 56 | 2.0 | 9.0 | 0.00 | 0.00 | 0.00 | 82 | 1007.2 |
| 20260505163334 | 57 | 49 | 2.0 | 3.0 | 0.00 | 0.00 | 0.00 | 82 | 1007.1 |
| 20260505162832 | 57 | 54 | 7.0 | 11.0 | 0.00 | 0.00 | 0.00 | 82 | 1006.9 |
| 20260505162328 | 57 | 68 | 6.0 | 13.0 | 0.00 | 0.00 | 0.00 | 83 | 1006.7 |
| 20260505161825 | 57 | 64 | 4.0 | 9.0 | 0.00 | 0.00 | 0.00 | 82 | 1006.5 |
| 20260505161322 | 58 | 58 | 4.0 | 6.0 | 0.00 | 0.00 | 0.00 | 82 | 1006.3 |
| 20260505160819 | 58 | 25 | 4.0 | 13.0 | 0.00 | 0.00 | 0.00 | 82 | 1006.3 |
| 20260505160317 | 59 | 349 | 4.0 | 9.0 | 0.00 | 0.00 | 0.00 | 82 | 1006.0 |
| 20260505153256 | 61 | 93 | 4.0 | 8.0 | 0.00 | 0.00 | 0.00 | 83 | 1005.4 |
| 20260505152753 | 61 | 208 | 2.0 | 10.0 | 0.00 | 0.00 | 0.00 | 83 | 1005.1 |
| 20260505152249 | 62 | 342 | 3.0 | 10.0 | 0.00 | 0.00 | 0.00 | 83 | 1004.7 |
| 20260505151744 | 62 | 97 | 2.0 | 4.0 | 0.00 | 0.00 | 0.00 | 83 | 1005.0 |
| 20260505151241 | 62 | 105 | 4.0 | 8.0 | 0.00 | 0.00 | 0.00 | 83 | 1004.5 |
| 20260505150738 | 63 | 97 | 6.0 | 11.0 | 0.00 | 0.00 | 0.00 | 82 | 1004.4 |
| 20260505150235 | 65 | 102 | 11.0 | 17.0 | 0.00 | 0.00 | 0.00 | 82 | 1004.2 |
| 20260505140200 | 68 | 64 | 3.0 | 7.0 | 0.00 | 0.00 | 0.00 | 84 | 1002.9 |
| 20260505130124 | 68 | 77 | 2.0 | 6.0 | 0.00 | 0.00 | 0.00 | 85 | 1002.6 |
| 20260505124613 | 68 | 59 | 3.0 | 4.0 | 0.00 | 0.00 | 0.00 | 83 | 1002.5 |
| 20260505124110 | 69 | 117 | 1.0 | 6.0 | 0.00 | 0.00 | 0.00 | 82 | 1002.4 |
| 20260505123606 | 69 | 102 | 0.0 | 3.0 | 0.00 | 0.00 | 0.00 | 81 | 1002.3 |
| 20260505123102 | 69 | 54 | 1.0 | 2.0 | 0.00 | 0.00 | 0.00 | 81 | 1002.3 |
| 20260505122559 | 69 | 129 | 0.0 | 0.0 | 0.00 | 0.00 | 0.00 | 82 | 1002.4 |
| 20260505122056 | 69 | 138 | 0.0 | 1.0 | 0.00 | 0.00 | 0.00 | 81 | 1002.3 |
| 20260505121552 | 68 | 147 | 0.0 | 0.0 | 0.00 | 0.00 | 0.00 | 81 | 1001.9 |
| 20260505121050 | 69 | 151 | 0.0 | 0.0 | 0.00 | 0.00 | 0.00 | 81 | 1001.9 |
| 20260505120546 | 69 | 165 | 0.0 | 0.0 | 0.00 | 0.00 | 0.00 | 80 | 1001.8 |
| 20260505120042 | 69 | 118 | 0.0 | 0.0 | 0.00 | 0.00 | 0.00 | 79 | 1002.0 |
| 20260505115536 | 70 | 188 | 0.0 | 0.0 | 0.00 | 0.00 | 0.00 | 78 | 1001.8 |
| 20260505115034 | 70 | 103 | 0.0 | 0.0 | 0.00 | 0.00 | 0.00 | 77 | 1001.8 |
| 20260505114525 | 71 | 100 | 0.0 | 1.0 | 0.00 | 0.00 | 0.00 | 76 | 1001.7 |
| 20260505114021 | 71 | 67 | 1.0 | 3.0 | 0.00 | 0.00 | 0.00 | 75 | 1001.3 |
| 20260505113518 | 70 | 130 | 0.0 | 1.0 | 0.00 | 0.00 | 0.00 | 77 | 1001.2 |
| 20260505113014 | 70 | 52 | 2.0 | 4.0 | 0.00 | 0.00 | 0.00 | 76 | 1001.2 |
| 20260505112510 | 71 | 47 | 1.0 | 1.0 | 0.00 | 0.00 | 0.00 | 76 | 1000.9 |
| 20260505112008 | 71 | 188 | 1.0 | 3.0 | 0.00 | 0.00 | 0.00 | 74 | 1000.6 |
| 20260505111502 | 71 | 162 | 1.0 | 2.0 | 0.00 | 0.00 | 0.00 | 74 | 1000.4 |
| 20260505110959 | 71 | 94 | 1.0 | 1.0 | 0.00 | 0.00 | 0.00 | 74 | 1000.5 |
| 20260505110455 | 72 | 173 | 1.0 | 4.0 | 0.00 | 0.00 | 0.00 | 73 | 1000.6 |
| 20260505101927 | 73 | 188 | 5.0 | 9.0 | 0.00 | 0.00 | 0.00 | 73 | 999.6 |
| 20260505101426 | 73 | 241 | 6.0 | 7.0 | 0.00 | 0.00 | 0.00 | 72 | 999.7 |
| 20260505100922 | 73 | 177 | 6.0 | 13.0 | 0.00 | 0.00 | 0.00 | 73 | 999.6 |
| 20260505100420 | 73 | 187 | 5.0 | 10.0 | 0.00 | 0.00 | 0.00 | 73 | 999.7 |
| 20260505095915 | 73 | 181 | 6.0 | 9.0 | 0.00 | 0.00 | 0.00 | 72 | 999.7 |
| 20260505095413 | 73 | 211 | 8.0 | 10.0 | 0.00 | 0.00 | 0.00 | 73 | 999.6 |
| 20260505094908 | 73 | 203 | 6.0 | 9.0 | 0.00 | 0.00 | 0.00 | 73 | 999.6 |
| 20260505094406 | 73 | 223 | 7.0 | 11.0 | 0.00 | 0.00 | 0.00 | 72 | 999.7 |
| 20260505093901 | 73 | 191 | 4.0 | 10.0 | 0.00 | 0.00 | 0.00 | 72 | 999.6 |
| 20260505093359 | 73 | 174 | 6.0 | 15.0 | 0.00 | 0.00 | 0.00 | 72 | 999.8 |
| 20260505092856 | 73 | 195 | 6.0 | 13.0 | 0.00 | 0.00 | 0.00 | 72 | 999.5 |
| 20260505092354 | 73 | 234 | 3.0 | 13.0 | 0.00 | 0.00 | 0.00 | 73 | 999.4 |
| 20260505091851 | 73 | 194 | 5.0 | 9.0 | 0.00 | 0.00 | 0.00 | 73 | 999.5 |
| 20260505091349 | 73 | 212 | 8.0 | 16.0 | 0.00 | 0.00 | 0.00 | 72 | 999.7 |
| 20260505090846 | 73 | 223 | 4.0 | 10.0 | 0.00 | 0.00 | 0.00 | 73 | 999.7 |
| 20260505090345 | 73 | 188 | 4.0 | 11.0 | 0.00 | 0.00 | 0.00 | 73 | 999.6 |
| 20260505085841 | 73 | 191 | 8.0 | 13.0 | 0.00 | 0.00 | 0.00 | 72 | 999.6 |
| 20260505085339 | 73 | 176 | 11.0 | 15.0 | 0.00 | 0.00 | 0.00 | 72 | 999.7 |
| 20260505084837 | 73 | 200 | 7.0 | 13.0 | 0.00 | 0.00 | 0.00 | 72 | 999.9 |
| 20260505084335 | 73 | 178 | 6.0 | 10.0 | 0.00 | 0.00 | 0.00 | 72 | 999.8 |
| 20260505083832 | 73 | 171 | 11.0 | 16.0 | 0.00 | 0.00 | 0.00 | 72 | 1000.0 |
| 20260505083330 | 73 | 185 | 6.0 | 11.0 | 0.00 | 0.00 | 0.00 | 72 | 1000.1 |
| 20260505082826 | 73 | 189 | 5.0 | 13.0 | 0.00 | 0.00 | 0.00 | 72 | 999.9 |
| 20260505082322 | 73 | 178 | 9.0 | 14.0 | 0.00 | 0.00 | 0.00 | 73 | 1000.1 |
| 20260505081819 | 73 | 181 | 4.0 | 11.0 | 0.00 | 0.00 | 0.00 | 73 | 1000.3 |
| 20260505081316 | 73 | 177 | 8.0 | 11.0 | 0.00 | 0.00 | 0.00 | 72 | 1000.0 |
| 20260505080812 | 73 | 168 | 8.0 | 11.0 | 0.00 | 0.00 | 0.00 | 73 | 1000.2 |
| 20260505080308 | 73 | 187 | 5.0 | 8.0 | 0.00 | 0.00 | 0.00 | 73 | 1000.5 |
| 20260505075804 | 73 | 171 | 3.0 | 6.0 | 0.00 | 0.00 | 0.00 | 73 | 1000.1 |
| 20260505075304 | 73 | 201 | 7.0 | 19.0 | 0.00 | 0.00 | 0.00 | 72 | 1000.3 |
| 20260505074758 | 73 | 237 | 5.0 | 10.0 | 0.00 | 0.00 | 0.00 | 73 | 1000.3 |
| 20260505074255 | 73 | 130 | 7.0 | 13.0 | 0.00 | 0.00 | 0.00 | 73 | 1000.4 |
| 20260505073753 | 73 | 209 | 7.0 | 11.0 | 0.00 | 0.00 | 0.00 | 73 | 1000.4 |
| 20260505073251 | 73 | 187 | 8.0 | 17.0 | 0.00 | 0.00 | 0.00 | 73 | 1000.5 |
| 20260505072747 | 73 | 198 | 8.0 | 18.0 | 0.00 | 0.00 | 0.00 | 73 | 1000.4 |
| 20260505072243 | 73 | 242 | 5.0 | 11.0 | 0.00 | 0.00 | 0.00 | 73 | 1000.6 |
| 20260505071739 | 73 | 198 | 3.0 | 15.0 | 0.00 | 0.00 | 0.00 | 72 | 1000.6 |
| 20260505071236 | 73 | 202 | 8.0 | 11.0 | 0.00 | 0.00 | 0.00 | 72 | 1000.8 |
| 20260505070734 | 73 | 241 | 5.0 | 14.0 | 0.00 | 0.00 | 0.00 | 72 | 1000.7 |
| 20260505070230 | 73 | 186 | 5.0 | 9.0 | 0.00 | 0.00 | 0.00 | 72 | 1001.0 |
| 20260505065726 | 73 | 180 | 9.0 | 13.0 | 0.00 | 0.00 | 0.00 | 72 | 1001.1 |
| 20260505065223 | 73 | 178 | 4.0 | 8.0 | 0.00 | 0.00 | 0.00 | 72 | 1001.2 |
| 20260505064720 | 73 | 145 | 6.0 | 11.0 | 0.00 | 0.00 | 0.00 | 72 | 1001.2 |
| 20260505064218 | 74 | 159 | 5.0 | 11.0 | 0.00 | 0.00 | 0.00 | 71 | 1001.1 |
| 20260505063715 | 74 | 181 | 5.0 | 13.0 | 0.00 | 0.00 | 0.00 | 71 | 1001.2 |
| 20260505063211 | 74 | 287 | 5.0 | 14.0 | 0.00 | 0.00 | 0.00 | 71 | 1001.2 |
| 20260505062707 | 73 | 191 | 5.0 | 14.0 | 0.00 | 0.00 | 0.00 | 71 | 1001.1 |
| 20260505062205 | 73 | 212 | 9.0 | 13.0 | 0.00 | 0.00 | 0.00 | 72 | 1001.3 |
| 20260505061702 | 74 | 230 | 3.0 | 13.0 | 0.00 | 0.00 | 0.00 | 71 | 1001.5 |
| 20260505061200 | 74 | 199 | 4.0 | 9.0 | 0.00 | 0.00 | 0.00 | 71 | 1001.4 |
| 20260505060657 | 73 | 288 | 3.0 | 11.0 | 0.00 | 0.00 | 0.00 | 71 | 1001.4 |
| 20260505060154 | 73 | 224 | 9.0 | 15.0 | 0.00 | 0.00 | 0.00 | 71 | 1001.4 |
| 20260505055649 | 74 | 216 | 9.0 | 15.0 | 0.00 | 0.00 | 0.00 | 71 | 1001.4 |
| 20260505055146 | 73 | 199 | 7.0 | 13.0 | 0.00 | 0.00 | 0.00 | 71 | 1001.6 |
| 20260505054643 | 73 | 187 | 8.0 | 11.0 | 0.00 | 0.00 | 0.00 | 71 | 1001.8 |
| 20260505054141 | 73 | 190 | 3.0 | 14.0 | 0.00 | 0.00 | 0.00 | 71 | 1001.8 |
| 20260505053639 | 74 | 212 | 5.0 | 10.0 | 0.00 | 0.00 | 0.00 | 71 | 1001.7 |
| 20260505053135 | 74 | 191 | 6.0 | 10.0 | 0.00 | 0.00 | 0.00 | 71 | 1001.8 |
| 20260505052632 | 74 | 214 | 2.0 | 10.0 | 0.00 | 0.00 | 0.00 | 70 | 1001.9 |
| 20260505052129 | 74 | 211 | 12.0 | 17.0 | 0.00 | 0.00 | 0.00 | 70 | 1001.7 |
| 20260505051626 | 74 | 229 | 7.0 | 10.0 | 0.00 | 0.00 | 0.00 | 70 | 1001.8 |
| 20260505051124 | 74 | 14 | 1.0 | 13.0 | 0.00 | 0.00 | 0.00 | 70 | 1001.8 |
| 20260505050621 | 74 | 152 | 6.0 | 9.0 | 0.00 | 0.00 | 0.00 | 70 | 1001.9 |
| 20260505050120 | 74 | 174 | 7.0 | 14.0 | 0.00 | 0.00 | 0.00 | 70 | 1001.9 |
| 20260505041549 | 75 | 190 | 7.0 | 13.0 | 0.00 | 0.00 | 0.00 | 69 | 1002.3 |
| 20260505041047 | 75 | 189 | 12.0 | 17.0 | 0.00 | 0.00 | 0.00 | 68 | 1002.5 |
| 20260505040544 | 75 | 204 | 4.0 | 18.0 | 0.00 | 0.00 | 0.00 | 68 | 1002.7 |
| 20260505040041 | 75 | 190 | 4.0 | 8.0 | 0.00 | 0.00 | 0.00 | 68 | 1002.7 |
| 20260505035537 | 75 | 178 | 11.0 | 17.0 | 0.00 | 0.00 | 0.00 | 68 | 1002.6 |
| 20260505035034 | 75 | 203 | 4.0 | 18.0 | 0.00 | 0.00 | 0.00 | 67 | 1002.5 |
| 20260505034530 | 75 | 187 | 2.0 | 15.0 | 0.00 | 0.00 | 0.00 | 68 | 1002.4 |
| 20260505034027 | 75 | 211 | 4.0 | 15.0 | 0.00 | 0.00 | 0.00 | 67 | 1002.4 |
| 20260505033524 | 75 | 185 | 5.0 | 17.0 | 0.00 | 0.00 | 0.00 | 67 | 1002.5 |
| 20260505033022 | 76 | 136 | 9.0 | 13.0 | 0.00 | 0.00 | 0.00 | 67 | 1002.3 |
| 20260505032520 | 76 | 175 | 9.0 | 15.0 | 0.00 | 0.00 | 0.00 | 66 | 1002.3 |
| 20260505032016 | 76 | 195 | 6.0 | 15.0 | 0.00 | 0.00 | 0.00 | 66 | 1002.3 |
| 20260505031514 | 76 | 174 | 2.0 | 15.0 | 0.00 | 0.00 | 0.00 | 66 | 1002.1 |
| 20260505031010 | 76 | 188 | 3.0 | 10.0 | 0.00 | 0.00 | 0.00 | 66 | 1002.0 |
| 20260505030507 | 76 | 208 | 4.0 | 8.0 | 0.00 | 0.00 | 0.00 | 66 | 1002.1 |
| 20260505030002 | 76 | 154 | 3.0 | 7.0 | 0.00 | 0.00 | 0.00 | 65 | 1002.3 |
| 20260505025459 | 77 | 216 | 9.0 | 15.0 | 0.00 | 0.00 | 0.00 | 65 | 1002.0 |
| 20260505024958 | 76 | 221 | 3.0 | 14.0 | 0.00 | 0.00 | 0.00 | 65 | 1001.8 |
| 20260505024454 | 77 | 187 | 5.0 | 11.0 | 0.00 | 0.00 | 0.00 | 65 | 1001.7 |
| 20260505023951 | 77 | 178 | 9.0 | 15.0 | 0.00 | 0.00 | 0.00 | 64 | 1001.9 |
| 20260505023448 | 77 | 191 | 11.0 | 15.0 | 0.00 | 0.00 | 0.00 | 64 | 1001.9 |
| 20260505022946 | 77 | 184 | 5.0 | 17.0 | 0.00 | 0.00 | 0.00 | 64 | 1001.9 |
| 20260505022443 | 77 | 201 | 4.0 | 15.0 | 0.00 | 0.00 | 0.00 | 64 | 1001.6 |
| 20260505021941 | 77 | 132 | 3.0 | 17.0 | 0.00 | 0.00 | 0.00 | 63 | 1001.7 |
| 20260505021437 | 77 | 182 | 7.0 | 9.0 | 0.00 | 0.00 | 0.00 | 63 | 1001.6 |
| 20260505020932 | 77 | 258 | 10.0 | 14.0 | 0.00 | 0.00 | 0.00 | 63 | 1001.6 |
| 20260505020428 | 77 | 185 | 9.0 | 11.0 | 0.00 | 0.00 | 0.00 | 63 | 1001.6 |
| 20260505015925 | 77 | 26 | 1.0 | 9.0 | 0.00 | 0.00 | 0.00 | 62 | 1001.6 |
| 20260505015422 | 78 | 217 | 3.0 | 14.0 | 0.00 | 0.00 | 0.00 | 62 | 1001.8 |
| 20260505014920 | 78 | 214 | 6.0 | 11.0 | 0.00 | 0.00 | 0.00 | 61 | 1001.6 |
| 20260505014416 | 78 | 157 | 9.0 | 22.0 | 0.00 | 0.00 | 0.00 | 61 | 1001.8 |
| 20260505013913 | 78 | 191 | 3.0 | 10.0 | 0.00 | 0.00 | 0.00 | 60 | 1001.6 |
| 20260505013410 | 78 | 177 | 9.0 | 11.0 | 0.00 | 0.00 | 0.00 | 60 | 1001.7 |
| 20260505012908 | 79 | 318 | 2.0 | 15.0 | 0.00 | 0.00 | 0.00 | 59 | 1001.7 |
| 20260505012406 | 79 | 163 | 2.0 | 15.0 | 0.00 | 0.00 | 0.00 | 59 | 1001.8 |
| 20260505011902 | 79 | 203 | 3.0 | 9.0 | 0.00 | 0.00 | 0.00 | 59 | 1001.9 |
| 20260505011359 | 79 | 153 | 6.0 | 13.0 | 0.00 | 0.00 | 0.00 | 59 | 1001.8 |
| 20260505010855 | 79 | 178 | 14.0 | 18.0 | 0.00 | 0.00 | 0.00 | 59 | 1001.9 |
| 20260505010351 | 79 | 278 | 9.0 | 14.0 | 0.00 | 0.00 | 0.00 | 58 | 1001.8 |
| 20260505005847 | 79 | 140 | 4.0 | 7.0 | 0.00 | 0.00 | 0.00 | 59 | 1002.1 |
| 20260505005344 | 79 | 192 | 8.0 | 11.0 | 0.00 | 0.00 | 0.00 | 58 | 1002.0 |
| 20260505004842 | 79 | 196 | 4.0 | 8.0 | 0.00 | 0.00 | 0.00 | 58 | 1002.0 |